Time,TemperatureF,DewpointF,PressureIn,WindDirection,WindDirectionDegrees,WindSpeedMPH,WindSpeedGustMPH,Humidity,HourlyPrecipIn,Conditions,Clouds,dailyrainin,SoftwareType,DateUTC
2013-08-07 00:01:00,64.9,41.2,29.99,North,0,0.0,0.0,42,0.00,,,0.00,WUHU21623XXSP,2013-08-07 07:01:00,
2013-08-07 00:06:00,64.2,40.5,29.99,North,0,0.0,0.0,42,0.00,,,0.00,WUHU21623XXSP,2013-08-07 07:06:00,
2013-08-07 00:11:00,64.0,40.4,29.99,North,0,0.0,0.0,42,0.00,,,0.00,WUHU21623XXSP,2013-08-07 07:11:00,
2013-08-07 00:17:00,63.5,39.9,29.99,North,0,0.0,0.0,42,0.00,,,0.00,WUHU21623XXSP,2013-08-07 07:17:00,
2013-08-07 00:22:00,63.3,40.3,29.99,North,0,0.0,0.0,43,0.00,,,0.00,WUHU21623XXSP,2013-08-07 07:22:00,
2013-08-07 00:27:00,63.0,40.0,29.99,North,0,0.0,0.0,43,0.00,,,0.00,WUHU21623XXSP,2013-08-07 07:27:00,
2013-08-07 00:32:00,62.6,39.7,29.99,North,0,0.0,0.0,43,0.00,,,0.00,WUHU21623XXSP,2013-08-07 07:32:00,
2013-08-07 00:38:00,62.2,39.3,29.99,North,0,0.0,0.0,43,0.00,,,0.00,WUHU21623XXSP,2013-08-07 07:38:00,
2013-08-07 00:43:00,61.9,39.0,29.99,North,0,0.0,0.0,43,0.00,,,0.00,WUHU21623XXSP,2013-08-07 07:43:00,
2013-08-07 00:48:00,61.5,38.7,29.99,North,0,0.0,0.0,43,0.00,,,0.00,WUHU21623XXSP,2013-08-07 07:48:00,
2013-08-07 00:53:00,61.3,38.5,29.99,North,0,0.0,0.0,43,0.00,,,0.00,WUHU21623XXSP,2013-08-07 07:53:00,
2013-08-07 00:59:00,61.0,38.8,29.99,North,0,0.0,0.0,44,0.00,,,0.00,WUHU21623XXSP,2013-08-07 07:59:00,
2013-08-07 01:04:00,61.0,38.8,29.99,North,0,0.0,0.0,44,0.00,,,0.00,WUHU21623XXSP,2013-08-07 08:04:00,
2013-08-07 01:09:00,60.4,38.3,29.99,North,0,0.0,0.0,44,0.00,,,0.00,WUHU21623XXSP,2013-08-07 08:09:00,
2013-08-07 01:14:00,59.9,37.8,29.99,NNW,337,0.0,0.0,44,0.00,,,0.00,WUHU21623XXSP,2013-08-07 08:14:00,
2013-08-07 01:19:00,59.5,37.5,30.00,NNW,337,0.0,0.0,44,0.00,,,0.00,WUHU21623XXSP,2013-08-07 08:19:00,
2013-08-07 01:25:00,59.2,37.7,30.00,NNW,337,0.0,1.6,45,0.00,,,0.00,WUHU21623XXSP,2013-08-07 08:25:00,
2013-08-07 01:30:00,58.8,37.4,30.00,NNW,337,0.0,1.6,45,0.00,,,0.00,WUHU21623XXSP,2013-08-07 08:30:00,
2013-08-07 01:35:00,58.8,37.4,30.00,NNW,337,0.0,0.0,45,0.00,,,0.00,WUHU21623XXSP,2013-08-07 08:35:00,
2013-08-07 01:40:00,58.6,37.8,30.00,NNW,337,0.0,0.0,46,0.00,,,0.00,WUHU21623XXSP,2013-08-07 08:40:00,
2013-08-07 01:46:00,58.5,37.7,30.00,NNW,337,0.0,0.0,46,0.00,,,0.00,WUHU21623XXSP,2013-08-07 08:46:00,
2013-08-07 01:51:00,58.3,37.5,30.00,NNW,337,0.0,0.0,46,0.00,,,0.00,WUHU21623XXSP,2013-08-07 08:51:00,
2013-08-07 01:56:00,57.9,37.2,30.00,NNW,337,0.0,0.0,46,0.00,,,0.00,WUHU21623XXSP,2013-08-07 08:56:00,
2013-08-07 02:01:00,57.6,37.4,30.00,NNW,337,0.0,0.0,47,0.00,,,0.00,WUHU21623XXSP,2013-08-07 09:01:00,
2013-08-07 02:07:00,57.4,37.3,30.00,NW,315,0.0,0.0,47,0.00,,,0.00,WUHU21623XXSP,2013-08-07 09:07:00,
2013-08-07 02:12:00,57.4,37.3,30.00,West,270,0.7,0.7,47,0.00,,,0.00,WUHU21623XXSP,2013-08-07 09:12:00,
2013-08-07 02:17:00,57.4,37.9,30.00,West,270,1.8,1.8,48,0.00,,,0.00,WUHU21623XXSP,2013-08-07 09:17:00,
2013-08-07 02:22:00,57.0,37.5,30.00,West,270,1.1,1.8,48,0.00,,,0.00,WUHU21623XXSP,2013-08-07 09:22:00,
2013-08-07 02:28:00,57.0,37.5,30.00,West,270,0.0,1.1,48,0.00,,,0.00,WUHU21623XXSP,2013-08-07 09:28:00,
2013-08-07 02:33:00,57.0,37.5,30.00,West,270,0.0,0.0,48,0.00,,,0.00,WUHU21623XXSP,2013-08-07 09:33:00,
2013-08-07 02:38:00,57.0,37.5,30.00,West,270,0.0,0.0,48,0.00,,,0.00,WUHU21623XXSP,2013-08-07 09:38:00,
2013-08-07 02:43:00,56.8,37.3,29.99,West,270,0.0,0.0,48,0.00,,,0.00,WUHU21623XXSP,2013-08-07 09:43:00,
2013-08-07 02:48:00,56.8,37.3,30.00,West,270,0.0,0.0,48,0.00,,,0.00,WUHU21623XXSP,2013-08-07 09:48:00,
2013-08-07 02:54:00,56.5,37.0,30.00,WSW,247,0.0,0.0,48,0.00,,,0.00,WUHU21623XXSP,2013-08-07 09:54:00,
2013-08-07 02:59:00,56.1,36.6,29.99,WSW,247,0.0,0.0,48,0.00,,,0.00,WUHU21623XXSP,2013-08-07 09:59:00,
2013-08-07 03:04:00,55.9,37.0,29.99,WSW,247,0.0,0.0,49,0.00,,,0.00,WUHU21623XXSP,2013-08-07 10:04:00,
2013-08-07 03:09:00,55.9,37.6,29.99,WSW,247,0.0,0.0,50,0.00,,,0.00,WUHU21623XXSP,2013-08-07 10:09:00,
2013-08-07 03:15:00,55.8,37.4,29.99,WSW,247,0.0,0.0,50,0.00,,,0.00,WUHU21623XXSP,2013-08-07 10:15:00,
2013-08-07 03:20:00,55.6,36.6,29.99,WSW,247,0.0,0.0,49,0.00,,,0.00,WUHU21623XXSP,2013-08-07 10:20:00,
2013-08-07 03:25:00,55.2,36.3,30.00,WSW,247,0.0,0.0,49,0.00,,,0.00,WUHU21623XXSP,2013-08-07 10:25:00,
2013-08-07 03:31:00,55.0,36.2,30.00,WSW,247,0.0,0.0,49,0.00,,,0.00,WUHU21623XXSP,2013-08-07 10:31:00,
2013-08-07 03:36:00,54.7,36.4,30.00,WSW,247,0.0,0.0,50,0.00,,,0.00,WUHU21623XXSP,2013-08-07 10:36:00,
2013-08-07 03:41:00,54.5,36.2,29.99,WSW,247,0.0,0.0,50,0.00,,,0.00,WUHU21623XXSP,2013-08-07 10:41:00,
2013-08-07 03:46:00,54.3,36.1,30.00,WSW,247,0.0,0.0,50,0.00,,,0.00,WUHU21623XXSP,2013-08-07 10:46:00,
2013-08-07 03:52:00,54.3,36.1,30.00,WSW,247,0.0,0.0,50,0.00,,,0.00,WUHU21623XXSP,2013-08-07 10:52:00,
2013-08-07 03:57:00,54.3,36.1,30.00,WSW,247,0.0,0.0,50,0.00,,,0.00,WUHU21623XXSP,2013-08-07 10:57:00,
2013-08-07 04:02:00,54.1,35.9,30.00,WSW,247,0.0,0.0,50,0.00,,,0.00,WUHU21623XXSP,2013-08-07 11:02:00,
2013-08-07 04:07:00,54.1,36.4,30.00,WSW,247,0.0,0.0,51,0.00,,,0.00,WUHU21623XXSP,2013-08-07 11:07:00,
2013-08-07 04:12:00,54.3,36.1,29.99,WSW,247,0.0,0.0,50,0.00,,,0.00,WUHU21623XXSP,2013-08-07 11:12:00,
2013-08-07 04:18:00,54.3,36.1,29.99,WSW,247,0.0,0.0,50,0.00,,,0.00,WUHU21623XXSP,2013-08-07 11:18:00,
2013-08-07 04:23:00,54.3,36.1,30.00,WSW,247,0.0,0.0,50,0.00,,,0.00,WUHU21623XXSP,2013-08-07 11:23:00,
2013-08-07 04:28:00,54.0,35.7,30.00,WSW,247,0.0,0.0,50,0.00,,,0.00,WUHU21623XXSP,2013-08-07 11:28:00,
2013-08-07 04:33:00,53.8,35.6,30.00,SW,225,0.0,0.0,50,0.00,,,0.00,WUHU21623XXSP,2013-08-07 11:33:00,
2013-08-07 04:39:00,53.8,35.6,30.00,SW,225,0.0,0.0,50,0.00,,,0.00,WUHU21623XXSP,2013-08-07 11:39:00,
2013-08-07 04:45:00,53.4,35.3,30.01,SW,225,0.0,0.0,50,0.00,,,0.00,WUHU21623XXSP,2013-08-07 11:45:00,
2013-08-07 04:50:00,53.2,35.1,30.01,SW,225,0.0,0.0,50,0.00,,,0.00,WUHU21623XXSP,2013-08-07 11:50:00,
2013-08-07 04:55:00,53.1,34.9,30.01,SW,225,0.0,0.0,50,0.00,,,0.00,WUHU21623XXSP,2013-08-07 11:55:00,
2013-08-07 05:00:00,52.9,34.8,30.01,SW,225,0.0,0.0,50,0.00,,,0.00,WUHU21623XXSP,2013-08-07 12:00:00,
2013-08-07 05:06:00,52.7,34.6,30.00,SW,225,0.0,0.0,50,0.00,,,0.00,WUHU21623XXSP,2013-08-07 12:06:00,
2013-08-07 05:11:00,52.5,34.4,30.01,SW,225,0.0,0.0,50,0.00,,,0.00,WUHU21623XXSP,2013-08-07 12:11:00,
2013-08-07 05:16:00,52.7,34.6,30.01,SW,225,0.0,0.0,50,0.00,,,0.00,WUHU21623XXSP,2013-08-07 12:16:00,
2013-08-07 05:21:00,52.7,34.6,30.01,SW,225,0.9,0.9,50,0.00,,,0.00,WUHU21623XXSP,2013-08-07 12:21:00,
2013-08-07 05:26:00,52.9,35.2,30.02,SW,225,1.6,2.5,51,0.00,,,0.00,WUHU21623XXSP,2013-08-07 12:26:00,
2013-08-07 05:32:00,53.2,35.5,30.02,SW,225,0.0,2.5,51,0.00,,,0.00,WUHU21623XXSP,2013-08-07 12:32:00,
2013-08-07 05:38:00,53.4,35.7,30.02,SW,225,0.0,1.8,51,0.00,,,0.00,WUHU21623XXSP,2013-08-07 12:38:00,
2013-08-07 05:43:00,53.8,36.0,30.02,WSW,247,0.0,1.8,51,0.00,,,0.00,WUHU21623XXSP,2013-08-07 12:43:00,
2013-08-07 05:48:00,54.0,36.2,30.02,WSW,247,0.0,0.0,51,0.00,,,0.00,WUHU21623XXSP,2013-08-07 12:48:00,
2013-08-07 05:53:00,54.3,36.5,30.02,WSW,247,0.0,0.0,51,0.00,,,0.00,WUHU21623XXSP,2013-08-07 12:53:00,
2013-08-07 05:59:00,54.7,36.9,30.02,WSW,247,0.4,0.9,51,0.00,,,0.00,WUHU21623XXSP,2013-08-07 12:59:00,
2013-08-07 06:04:00,54.9,37.0,30.02,WSW,247,0.7,1.6,51,0.00,,,0.00,WUHU21623XXSP,2013-08-07 13:04:00,
2013-08-07 06:09:00,55.0,37.2,30.02,WSW,247,0.0,1.6,51,0.00,,,0.00,WUHU21623XXSP,2013-08-07 13:09:00,
2013-08-07 06:14:00,55.4,37.0,30.01,WSW,247,0.0,0.0,50,0.00,,,0.00,WUHU21623XXSP,2013-08-07 13:14:00,
2013-08-07 06:20:00,55.6,37.2,30.01,WSW,247,0.0,0.0,50,0.00,,,0.00,WUHU21623XXSP,2013-08-07 13:20:00,
2013-08-07 06:25:00,55.9,38.0,30.01,WNW,292,1.1,1.1,51,0.00,,,0.00,WUHU21623XXSP,2013-08-07 13:25:00,
2013-08-07 06:30:00,56.1,38.2,30.01,NW,315,0.0,1.1,51,0.00,,,0.00,WUHU21623XXSP,2013-08-07 13:30:00,
2013-08-07 06:35:00,56.3,37.9,30.01,NW,315,0.0,0.0,50,0.00,,,0.00,WUHU21623XXSP,2013-08-07 13:35:00,
2013-08-07 06:41:00,56.7,38.3,30.01,NNE,22,0.9,0.9,50,0.00,,,0.00,WUHU21623XXSP,2013-08-07 13:41:00,
2013-08-07 06:46:00,56.8,38.5,30.01,North,0,0.0,0.9,50,0.00,,,0.00,WUHU21623XXSP,2013-08-07 13:46:00,
2013-08-07 06:52:00,57.0,38.7,30.00,North,0,0.0,0.0,50,0.00,,,0.00,WUHU21623XXSP,2013-08-07 13:52:00,
2013-08-07 06:57:00,57.4,39.0,30.01,NNE,22,0.0,0.0,50,0.00,,,0.00,WUHU21623XXSP,2013-08-07 13:57:00,
2013-08-07 07:02:00,57.7,39.3,30.01,NE,45,0.0,0.0,50,0.00,,,0.00,WUHU21623XXSP,2013-08-07 14:02:00,
2013-08-07 07:07:00,57.9,40.0,30.01,ESE,112,0.0,0.0,51,0.00,,,0.00,WUHU21623XXSP,2013-08-07 14:07:00,
2013-08-07 07:13:00,58.1,39.6,30.02,SSE,157,0.7,0.7,50,0.00,,,0.00,WUHU21623XXSP,2013-08-07 14:13:00,
2013-08-07 07:18:00,58.3,39.8,30.02,South,180,1.8,2.0,50,0.00,,,0.00,WUHU21623XXSP,2013-08-07 14:18:00,
2013-08-07 07:23:00,58.6,39.6,30.02,South,180,0.0,2.5,49,0.00,,,0.00,WUHU21623XXSP,2013-08-07 14:23:00,
2013-08-07 07:28:00,58.8,39.7,30.02,South,180,0.4,2.5,49,0.00,,,0.00,WUHU21623XXSP,2013-08-07 14:28:00,
2013-08-07 07:34:00,58.8,40.3,30.02,South,180,0.0,1.1,50,0.00,,,0.00,WUHU21623XXSP,2013-08-07 14:34:00,
2013-08-07 07:39:00,58.8,40.3,30.02,South,180,0.0,0.0,50,0.00,,,0.00,WUHU21623XXSP,2013-08-07 14:39:00,
2013-08-07 07:45:00,59.2,40.0,30.02,SSE,157,2.7,2.7,49,0.00,,,0.00,WUHU21623XXSP,2013-08-07 14:45:00,
2013-08-07 07:50:00,59.9,40.7,30.02,SSE,157,2.0,2.7,49,0.00,,,0.00,WUHU21623XXSP,2013-08-07 14:50:00,
2013-08-07 07:55:00,60.4,41.2,30.02,SSE,157,2.0,4.3,49,0.00,,,0.00,WUHU21623XXSP,2013-08-07 14:55:00,
2013-08-07 08:00:00,61.0,41.7,30.02,SSE,157,2.5,4.3,49,0.00,,,0.00,WUHU21623XXSP,2013-08-07 15:00:00,
2013-08-07 08:06:00,61.7,41.7,30.03,South,180,0.0,2.5,48,0.00,,,0.00,WUHU21623XXSP,2013-08-07 15:06:00,
2013-08-07 08:11:00,62.4,41.8,30.03,South,180,0.0,2.2,47,0.00,,,0.00,WUHU21623XXSP,2013-08-07 15:11:00,
2013-08-07 08:16:00,63.3,42.6,30.02,ENE,67,0.0,3.8,47,0.00,,,0.00,WUHU21623XXSP,2013-08-07 15:16:00,
2013-08-07 08:21:00,64.2,43.4,30.02,South,180,2.0,3.8,47,0.00,,,0.00,WUHU21623XXSP,2013-08-07 15:21:00,
2013-08-07 08:27:00,65.8,44.4,30.03,SSW,202,0.2,4.0,46,0.00,,,0.00,WUHU21623XXSP,2013-08-07 15:27:00,
2013-08-07 08:32:00,66.9,44.8,30.02,SSE,157,0.0,4.0,45,0.00,,,0.00,WUHU21623XXSP,2013-08-07 15:32:00,
2013-08-07 08:37:00,68.5,45.7,30.02,SSE,157,0.0,0.0,44,0.00,,,0.00,WUHU21623XXSP,2013-08-07 15:37:00,
2013-08-07 08:43:00,69.6,46.0,30.02,SSE,157,0.0,0.0,43,0.00,,,0.00,WUHU21623XXSP,2013-08-07 15:43:00,
2013-08-07 08:48:00,71.4,46.5,30.02,East,90,0.0,3.1,41,0.00,,,0.00,WUHU21623XXSP,2013-08-07 15:48:00,
2013-08-07 08:54:00,72.3,45.9,30.02,NE,45,1.8,3.1,39,0.00,,,0.00,WUHU21623XXSP,2013-08-07 15:54:00,
2013-08-07 08:59:00,73.6,47.8,30.02,NE,45,0.0,1.8,40,0.00,,,0.00,WUHU21623XXSP,2013-08-07 15:59:00,
2013-08-07 09:04:00,74.5,47.9,30.02,NE,45,0.0,0.0,39,0.00,,,0.00,WUHU21623XXSP,2013-08-07 16:04:00,
2013-08-07 09:09:00,75.7,47.5,30.02,NNE,22,4.5,4.5,37,0.00,,,0.00,WUHU21623XXSP,2013-08-07 16:09:00,
2013-08-07 09:15:00,75.9,46.9,30.02,NNE,22,2.7,4.5,36,0.00,,,0.00,WUHU21623XXSP,2013-08-07 16:15:00,
2013-08-07 09:20:00,76.1,47.1,30.02,NE,45,2.7,3.1,36,0.00,,,0.00,WUHU21623XXSP,2013-08-07 16:20:00,
2013-08-07 09:25:00,76.6,47.6,30.02,SE,135,0.0,2.7,36,0.00,,,0.00,WUHU21623XXSP,2013-08-07 16:25:00,
2013-08-07 09:30:00,76.8,47.0,30.01,NE,45,2.2,2.2,35,0.00,,,0.00,WUHU21623XXSP,2013-08-07 16:30:00,
2013-08-07 09:35:00,76.6,46.8,30.01,NNE,22,0.7,4.3,35,0.00,,,0.00,WUHU21623XXSP,2013-08-07 16:35:00,
2013-08-07 09:41:00,76.8,47.7,30.02,NNE,22,2.0,4.3,36,0.00,,,0.00,WUHU21623XXSP,2013-08-07 16:41:00,
2013-08-07 09:46:00,77.7,47.7,30.02,NNE,22,4.7,6.7,35,0.00,,,0.00,WUHU21623XXSP,2013-08-07 16:46:00,
2013-08-07 09:51:00,77.7,47.0,30.02,NE,45,1.6,6.7,34,0.00,,,0.00,WUHU21623XXSP,2013-08-07 16:51:00,
2013-08-07 09:56:00,77.7,47.7,30.02,NE,45,1.6,2.9,35,0.00,,,0.00,WUHU21623XXSP,2013-08-07 16:56:00,
2013-08-07 10:02:00,77.7,46.2,30.01,NE,45,0.0,2.9,33,0.00,,,0.00,WUHU21623XXSP,2013-08-07 17:02:00,
2013-08-07 10:07:00,77.7,47.7,30.02,North,0,0.0,2.0,35,0.00,,,0.00,WUHU21623XXSP,2013-08-07 17:07:00,
2013-08-07 10:12:00,78.1,48.0,30.02,North,0,0.0,2.0,35,0.00,,,0.00,WUHU21623XXSP,2013-08-07 17:12:00,
2013-08-07 10:17:00,77.9,46.3,30.01,NE,45,0.0,2.2,33,0.00,,,0.00,WUHU21623XXSP,2013-08-07 17:17:00,
2013-08-07 10:23:00,77.7,47.7,30.01,NE,45,0.0,2.2,35,0.00,,,0.00,WUHU21623XXSP,2013-08-07 17:23:00,
2013-08-07 10:28:00,77.5,46.0,30.00,North,0,0.9,2.2,33,0.00,,,0.00,WUHU21623XXSP,2013-08-07 17:28:00,
2013-08-07 10:33:00,77.4,46.7,29.98,NNE,22,3.8,3.8,34,0.00,,,0.00,WUHU21623XXSP,2013-08-07 17:33:00,
2013-08-07 10:38:00,76.8,46.2,29.99,ENE,67,0.0,3.8,34,0.00,,,0.00,WUHU21623XXSP,2013-08-07 17:38:00,
2013-08-07 10:44:00,76.6,46.8,30.01,SE,135,0.7,3.6,35,0.00,,,0.00,WUHU21623XXSP,2013-08-07 17:44:00,
2013-08-07 10:49:00,76.5,45.9,30.01,South,180,1.1,3.6,34,0.00,,,0.00,WUHU21623XXSP,2013-08-07 17:49:00,
2013-08-07 10:54:00,76.3,45.0,30.01,NNE,22,0.0,2.7,33,0.00,,,0.00,WUHU21623XXSP,2013-08-07 17:54:00,
2013-08-07 10:59:00,76.6,45.3,30.01,SE,135,0.0,2.2,33,0.00,,,0.00,WUHU21623XXSP,2013-08-07 17:59:00,
2013-08-07 11:04:00,77.0,47.1,30.01,ESE,112,0.0,2.2,35,0.00,,,0.00,WUHU21623XXSP,2013-08-07 18:04:00,
2013-08-07 11:10:00,77.7,46.2,30.00,NE,45,1.1,1.3,33,0.00,,,0.00,WUHU21623XXSP,2013-08-07 18:10:00,
2013-08-07 11:15:00,78.6,46.9,30.00,SE,135,1.1,2.5,33,0.00,,,0.00,WUHU21623XXSP,2013-08-07 18:15:00,
2013-08-07 11:20:00,79.5,47.0,29.99,West,270,2.2,2.5,32,0.00,,,0.00,WUHU21623XXSP,2013-08-07 18:20:00,
2013-08-07 11:25:00,80.4,47.0,29.99,ESE,112,0.0,2.2,31,0.00,,,0.00,WUHU21623XXSP,2013-08-07 18:25:00,
2013-08-07 11:31:00,81.7,48.0,29.99,NNE,22,3.6,3.6,31,0.00,,,0.00,WUHU21623XXSP,2013-08-07 18:31:00,
2013-08-07 11:36:00,82.6,48.8,29.99,NNW,337,1.3,3.6,31,0.00,,,0.00,WUHU21623XXSP,2013-08-07 18:36:00,
2013-08-07 11:41:00,83.7,49.0,29.99,WSW,247,2.7,2.7,30,0.00,,,0.00,WUHU21623XXSP,2013-08-07 18:41:00,
2013-08-07 11:46:00,84.4,49.6,29.99,SW,225,0.0,2.7,30,0.00,,,0.00,WUHU21623XXSP,2013-08-07 18:46:00,
2013-08-07 11:52:00,84.7,48.9,29.99,North,0,1.6,1.6,29,0.00,,,0.00,WUHU21623XXSP,2013-08-07 18:52:00,
2013-08-07 11:57:00,84.4,48.5,30.00,NE,45,1.6,1.6,29,0.00,,,0.00,WUHU21623XXSP,2013-08-07 18:57:00,
2013-08-07 12:02:00,84.0,48.2,30.00,ESE,112,3.6,3.6,29,0.00,,,0.00,WUHU21623XXSP,2013-08-07 19:02:00,
2013-08-07 12:07:00,84.2,48.4,30.00,SE,135,0.0,6.7,29,0.00,,,0.00,WUHU21623XXSP,2013-08-07 19:07:00,
2013-08-07 12:12:00,84.0,48.2,30.00,SSE,157,3.1,3.1,29,0.00,,,0.00,WUHU21623XXSP,2013-08-07 19:12:00,
2013-08-07 12:18:00,84.6,48.7,30.00,NNE,22,1.8,4.5,29,0.00,,,0.00,WUHU21623XXSP,2013-08-07 19:18:00,
2013-08-07 12:23:00,84.9,49.0,30.00,NE,45,1.1,4.5,29,0.00,,,0.00,WUHU21623XXSP,2013-08-07 19:23:00,
2013-08-07 12:28:00,85.6,48.6,30.00,NNW,337,6.5,6.5,28,0.00,,,0.00,WUHU21623XXSP,2013-08-07 19:28:00,
2013-08-07 12:33:00,85.8,48.8,30.00,NNE,22,0.0,6.5,28,0.00,,,0.00,WUHU21623XXSP,2013-08-07 19:33:00,
2013-08-07 12:39:00,86.4,49.2,30.00,WSW,247,1.8,4.5,28,0.00,,,0.00,WUHU21623XXSP,2013-08-07 19:39:00,
2013-08-07 12:44:00,86.5,48.3,30.00,NE,45,2.7,4.5,27,0.00,,,0.00,WUHU21623XXSP,2013-08-07 19:44:00,
2013-08-07 12:49:00,86.5,49.4,30.00,SSW,202,0.0,2.7,28,0.00,,,0.00,WUHU21623XXSP,2013-08-07 19:49:00,
2013-08-07 12:54:00,86.7,48.4,30.01,NNE,22,2.2,5.4,27,0.00,,,0.00,WUHU21623XXSP,2013-08-07 19:54:00,
2013-08-07 13:00:00,87.1,48.7,30.01,ESE,112,0.0,2.2,27,0.00,,,0.00,WUHU21623XXSP,2013-08-07 20:00:00,
2013-08-07 13:05:00,87.6,48.1,30.01,SSW,202,4.5,4.5,26,0.00,,,0.00,WUHU21623XXSP,2013-08-07 20:05:00,
2013-08-07 13:10:00,88.0,49.5,30.01,SW,225,2.2,6.0,27,0.00,,,0.00,WUHU21623XXSP,2013-08-07 20:10:00,
2013-08-07 13:15:00,88.7,49.0,30.01,West,270,3.4,6.0,26,0.00,,,0.00,WUHU21623XXSP,2013-08-07 20:15:00,
2013-08-07 13:21:00,89.2,49.5,30.01,West,270,3.8,3.8,26,0.00,,,0.00,WUHU21623XXSP,2013-08-07 20:21:00,
2013-08-07 13:26:00,89.4,48.6,30.00,NE,45,2.2,4.3,25,0.00,,,0.00,WUHU21623XXSP,2013-08-07 20:26:00,
2013-08-07 13:31:00,89.4,49.7,30.00,SW,225,4.7,4.7,26,0.00,,,0.00,WUHU21623XXSP,2013-08-07 20:31:00,
2013-08-07 13:36:00,89.4,48.6,30.00,SSW,202,1.8,4.7,25,0.00,,,0.00,WUHU21623XXSP,2013-08-07 20:36:00,
2013-08-07 13:42:00,89.4,48.6,30.00,NNE,22,0.9,1.8,25,0.00,,,0.00,WUHU21623XXSP,2013-08-07 20:42:00,
2013-08-07 13:47:00,89.2,48.4,30.00,West,270,1.6,6.3,25,0.00,,,0.00,WUHU21623XXSP,2013-08-07 20:47:00,
2013-08-07 13:52:00,88.7,49.0,30.00,WSW,247,0.0,6.3,26,0.00,,,0.00,WUHU21623XXSP,2013-08-07 20:52:00,
2013-08-07 13:57:00,88.5,47.8,30.00,WSW,247,0.0,0.0,25,0.00,,,0.00,WUHU21623XXSP,2013-08-07 20:57:00,
2013-08-07 14:02:00,88.0,47.4,29.99,NNE,22,0.0,0.0,25,0.00,,,0.00,WUHU21623XXSP,2013-08-07 21:02:00,
2013-08-07 14:08:00,87.6,48.1,29.99,NNE,22,0.0,0.0,26,0.00,,,0.00,WUHU21623XXSP,2013-08-07 21:08:00,
2013-08-07 14:13:00,87.1,47.7,29.99,NW,315,0.0,1.8,26,0.00,,,0.00,WUHU21623XXSP,2013-08-07 21:13:00,
2013-08-07 14:18:00,86.9,47.5,29.99,NNW,337,0.0,3.8,26,0.00,,,0.00,WUHU21623XXSP,2013-08-07 21:18:00,
2013-08-07 14:23:00,86.5,47.2,29.99,NNW,337,0.0,4.3,26,0.00,,,0.00,WUHU21623XXSP,2013-08-07 21:23:00,
2013-08-07 14:29:00,86.2,46.9,29.99,NNW,337,7.6,7.6,26,0.00,,,0.00,WUHU21623XXSP,2013-08-07 21:29:00,
2013-08-07 14:34:00,85.8,46.6,29.99,NE,45,0.0,7.6,26,0.00,,,0.00,WUHU21623XXSP,2013-08-07 21:34:00,
2013-08-07 14:39:00,85.6,46.4,29.99,North,0,3.1,4.5,26,0.00,,,0.00,WUHU21623XXSP,2013-08-07 21:39:00,
2013-08-07 14:44:00,85.6,46.4,29.99,NNW,337,0.0,4.3,26,0.00,,,0.00,WUHU21623XXSP,2013-08-07 21:44:00,
2013-08-07 14:50:00,85.3,45.1,29.99,NE,45,0.7,6.0,25,0.00,,,0.00,WUHU21623XXSP,2013-08-07 21:50:00,
2013-08-07 14:55:00,85.3,46.1,29.99,SW,225,2.2,6.0,26,0.00,,,0.00,WUHU21623XXSP,2013-08-07 21:55:00,
2013-08-07 15:00:00,85.1,46.0,29.99,WSW,247,2.0,6.5,26,0.00,,,0.00,WUHU21623XXSP,2013-08-07 22:00:00,
2013-08-07 15:05:00,84.9,45.8,29.99,NE,45,3.1,6.5,26,0.00,,,0.00,WUHU21623XXSP,2013-08-07 22:05:00,
2013-08-07 15:10:00,84.7,45.7,29.99,West,270,2.5,5.4,26,0.00,,,0.00,WUHU21623XXSP,2013-08-07 22:10:00,
2013-08-07 15:16:00,84.6,46.6,29.99,WNW,292,0.0,5.4,27,0.00,,,0.00,WUHU21623XXSP,2013-08-07 22:16:00,
2013-08-07 15:21:00,84.4,46.4,29.99,North,0,0.0,1.1,27,0.00,,,0.00,WUHU21623XXSP,2013-08-07 22:21:00,
2013-08-07 15:26:00,84.7,46.7,29.99,WSW,247,6.3,6.3,27,0.00,,,0.00,WUHU21623XXSP,2013-08-07 22:26:00,
2013-08-07 15:31:00,85.1,47.0,29.99,WSW,247,3.6,6.3,27,0.00,,,0.00,WUHU21623XXSP,2013-08-07 22:31:00,
2013-08-07 15:37:00,85.3,47.2,29.99,SSW,202,0.0,3.8,27,0.00,,,0.00,WUHU21623XXSP,2013-08-07 22:37:00,
2013-08-07 15:42:00,85.3,48.3,29.99,West,270,6.3,6.3,28,0.00,,,0.00,WUHU21623XXSP,2013-08-07 22:42:00,
2013-08-07 15:47:00,84.9,48.0,29.99,ESE,112,0.7,6.3,28,0.00,,,0.00,WUHU21623XXSP,2013-08-07 22:47:00,
2013-08-07 15:52:00,84.9,48.0,29.99,WSW,247,0.0,1.3,28,0.00,,,0.00,WUHU21623XXSP,2013-08-07 22:52:00,
2013-08-07 15:58:00,84.7,47.8,29.99,SSE,157,2.9,4.7,28,0.00,,,0.00,WUHU21623XXSP,2013-08-07 22:58:00,
2013-08-07 16:03:00,84.7,47.8,29.99,WSW,247,5.1,5.1,28,0.00,,,0.00,WUHU21623XXSP,2013-08-07 23:03:00,
2013-08-07 16:08:00,84.6,48.7,29.98,ESE,112,0.0,7.2,29,0.00,,,0.00,WUHU21623XXSP,2013-08-07 23:08:00,
2013-08-07 16:13:00,84.4,49.6,29.98,ESE,112,0.0,7.2,30,0.00,,,0.00,WUHU21623XXSP,2013-08-07 23:13:00,
2013-08-07 16:19:00,84.0,49.3,29.99,NNE,22,6.9,6.9,30,0.00,,,0.00,WUHU21623XXSP,2013-08-07 23:19:00,
2013-08-07 16:24:00,83.5,48.8,29.98,SW,225,2.9,6.9,30,0.00,,,0.00,WUHU21623XXSP,2013-08-07 23:24:00,
2013-08-07 16:29:00,83.1,48.5,29.98,WSW,247,0.0,2.9,30,0.00,,,0.00,WUHU21623XXSP,2013-08-07 23:29:00,
2013-08-07 16:34:00,82.9,48.3,29.98,WNW,292,1.6,10.3,30,0.00,,,0.00,WUHU21623XXSP,2013-08-07 23:34:00,
2013-08-07 16:39:00,82.9,48.3,29.98,NNE,22,0.0,10.3,30,0.00,,,0.00,WUHU21623XXSP,2013-08-07 23:39:00,
2013-08-07 16:45:00,82.9,48.3,29.98,SSE,157,0.0,2.9,30,0.00,,,0.00,WUHU21623XXSP,2013-08-07 23:45:00,
2013-08-07 16:50:00,82.8,48.2,29.98,WSW,247,2.7,2.7,30,0.00,,,0.00,WUHU21623XXSP,2013-08-07 23:50:00,
2013-08-07 16:55:00,82.9,48.3,29.98,WSW,247,1.6,2.7,30,0.00,,,0.00,WUHU21623XXSP,2013-08-07 23:55:00,
2013-08-07 17:00:00,83.3,47.6,29.98,WSW,247,4.0,6.3,29,0.00,,,0.00,WUHU21623XXSP,2013-08-08 00:00:00,
2013-08-07 17:06:00,83.3,47.6,29.97,WSW,247,3.8,6.3,29,0.00,,,0.00,WUHU21623XXSP,2013-08-08 00:06:00,
2013-08-07 17:11:00,83.1,47.4,29.97,WSW,247,2.9,5.1,29,0.00,,,0.00,WUHU21623XXSP,2013-08-08 00:11:00,
2013-08-07 17:16:00,83.1,47.4,29.98,WSW,247,0.7,2.9,29,0.00,,,0.00,WUHU21623XXSP,2013-08-08 00:16:00,
2013-08-07 17:21:00,82.9,47.3,29.97,West,270,0.0,2.9,29,0.00,,,0.00,WUHU21623XXSP,2013-08-08 00:21:00,
2013-08-07 17:27:00,82.9,48.3,29.97,NW,315,2.0,2.0,30,0.00,,,0.00,WUHU21623XXSP,2013-08-08 00:27:00,
2013-08-07 17:32:00,82.8,48.2,29.97,North,0,0.0,8.3,30,0.00,,,0.00,WUHU21623XXSP,2013-08-08 00:32:00,
2013-08-07 17:37:00,82.6,46.9,29.97,North,0,5.4,8.3,29,0.00,,,0.00,WUHU21623XXSP,2013-08-08 00:37:00,
2013-08-07 17:42:00,82.4,47.8,29.98,West,270,3.8,5.4,30,0.00,,,0.00,WUHU21623XXSP,2013-08-08 00:42:00,
2013-08-07 17:47:00,82.2,47.7,29.97,NNE,22,0.2,4.7,30,0.00,,,0.00,WUHU21623XXSP,2013-08-08 00:47:00,
2013-08-07 17:53:00,82.0,47.6,29.97,WNW,292,7.4,7.4,30,0.00,,,0.00,WUHU21623XXSP,2013-08-08 00:53:00,
2013-08-07 17:58:00,81.5,47.9,29.98,NW,315,0.0,7.4,31,0.00,,,0.00,WUHU21623XXSP,2013-08-08 00:58:00,
2013-08-07 18:03:00,81.3,47.8,29.98,North,0,3.8,5.8,31,0.00,,,0.00,WUHU21623XXSP,2013-08-08 01:03:00,
2013-08-07 18:08:00,81.1,47.6,29.98,NNW,337,1.8,5.8,31,0.00,,,0.00,WUHU21623XXSP,2013-08-08 01:08:00,
2013-08-07 18:14:00,80.8,47.3,29.98,West,270,5.8,5.8,31,0.00,,,0.00,WUHU21623XXSP,2013-08-08 01:14:00,
2013-08-07 18:19:00,80.4,47.0,29.98,SSW,202,6.7,6.7,31,0.00,,,0.00,WUHU21623XXSP,2013-08-08 01:19:00,
2013-08-07 18:24:00,80.2,46.9,29.98,ENE,67,2.7,9.2,31,0.00,,,0.00,WUHU21623XXSP,2013-08-08 01:24:00,
2013-08-07 18:29:00,79.9,46.5,29.98,SW,225,3.1,9.2,31,0.00,,,0.00,WUHU21623XXSP,2013-08-08 01:29:00,
2013-08-07 18:35:00,79.5,46.2,29.98,SW,225,2.5,5.8,31,0.00,,,0.00,WUHU21623XXSP,2013-08-08 01:35:00,
2013-08-07 18:40:00,79.3,46.0,29.98,WSW,247,0.0,5.8,31,0.00,,,0.00,WUHU21623XXSP,2013-08-08 01:40:00,
2013-08-07 18:45:00,79.0,45.7,29.98,West,270,2.0,5.1,31,0.00,,,0.00,WUHU21623XXSP,2013-08-08 01:45:00,
2013-08-07 18:50:00,78.6,45.4,29.98,North,0,4.7,4.7,31,0.00,,,0.00,WUHU21623XXSP,2013-08-08 01:50:00,
2013-08-07 18:56:00,78.6,45.4,29.98,SSE,157,0.0,4.7,31,0.00,,,0.00,WUHU21623XXSP,2013-08-08 01:56:00,
2013-08-07 19:01:00,78.4,45.2,29.99,NW,315,4.3,4.3,31,0.00,,,0.00,WUHU21623XXSP,2013-08-08 02:01:00,
2013-08-07 19:06:00,77.7,44.7,29.98,NNW,337,3.1,4.3,31,0.00,,,0.00,WUHU21623XXSP,2013-08-08 02:06:00,
2013-08-07 19:11:00,77.5,44.5,29.99,SSW,202,1.6,3.4,31,0.00,,,0.00,WUHU21623XXSP,2013-08-08 02:11:00,
2013-08-07 19:17:00,77.2,44.2,29.99,ESE,112,2.7,2.7,31,0.00,,,0.00,WUHU21623XXSP,2013-08-08 02:17:00,
2013-08-07 19:22:00,76.8,43.9,29.99,NE,45,0.0,2.7,31,0.00,,,0.00,WUHU21623XXSP,2013-08-08 02:22:00,
2013-08-07 19:27:00,76.6,44.5,29.99,SW,225,2.9,2.9,32,0.00,,,0.00,WUHU21623XXSP,2013-08-08 02:27:00,
2013-08-07 19:32:00,76.1,44.8,29.99,WNW,292,2.5,2.9,33,0.00,,,0.00,WUHU21623XXSP,2013-08-08 02:32:00,
2013-08-07 19:37:00,75.7,45.2,30.00,ESE,112,3.4,4.9,34,0.00,,,0.00,WUHU21623XXSP,2013-08-08 02:37:00,
2013-08-07 19:43:00,75.0,46.1,30.00,SSE,157,4.5,4.9,36,0.00,,,0.00,WUHU21623XXSP,2013-08-08 02:43:00,
2013-08-07 19:48:00,74.7,45.8,30.00,NE,45,3.1,4.5,36,0.00,,,0.00,WUHU21623XXSP,2013-08-08 02:48:00,
2013-08-07 19:53:00,74.1,45.3,30.00,WNW,292,0.0,3.1,36,0.00,,,0.00,WUHU21623XXSP,2013-08-08 02:53:00,
2013-08-07 19:58:00,73.9,44.4,30.01,SSE,157,1.3,1.3,35,0.00,,,0.00,WUHU21623XXSP,2013-08-08 02:58:00,
2013-08-07 20:04:00,73.6,44.0,30.01,NNW,337,0.0,4.0,35,0.00,,,0.00,WUHU21623XXSP,2013-08-08 03:04:00,
2013-08-07 20:09:00,73.4,43.9,30.02,WSW,247,0.0,4.0,35,0.00,,,0.00,WUHU21623XXSP,2013-08-08 03:09:00,
2013-08-07 20:14:00,73.2,43.7,30.02,ESE,112,0.0,2.2,35,0.00,,,0.00,WUHU21623XXSP,2013-08-08 03:14:00,
2013-08-07 20:19:00,73.2,43.7,30.02,SSW,202,0.0,2.2,35,0.00,,,0.00,WUHU21623XXSP,2013-08-08 03:19:00,
2013-08-07 20:25:00,73.2,43.7,30.02,SSW,202,2.9,2.9,35,0.00,,,0.00,WUHU21623XXSP,2013-08-08 03:25:00,
2013-08-07 20:30:00,73.0,43.6,30.02,South,180,0.0,2.9,35,0.00,,,0.00,WUHU21623XXSP,2013-08-08 03:30:00,
2013-08-07 20:35:00,73.0,42.8,30.02,WNW,292,0.0,0.7,34,0.00,,,0.00,WUHU21623XXSP,2013-08-08 03:35:00,
2013-08-07 20:40:00,72.9,42.7,30.02,NE,45,0.0,0.7,34,0.00,,,0.00,WUHU21623XXSP,2013-08-08 03:40:00,
2013-08-07 20:45:00,72.7,42.5,30.02,NE,45,0.0,0.0,34,0.00,,,0.00,WUHU21623XXSP,2013-08-08 03:45:00,
2013-08-07 20:51:00,72.7,42.5,30.02,NE,45,0.0,0.0,34,0.00,,,0.00,WUHU21623XXSP,2013-08-08 03:51:00,
2013-08-07 20:56:00,72.7,42.5,30.02,NE,45,0.0,0.0,34,0.00,,,0.00,WUHU21623XXSP,2013-08-08 03:56:00,
2013-08-07 21:01:00,72.3,43.0,30.02,NE,45,0.0,0.0,35,0.00,,,0.00,WUHU21623XXSP,2013-08-08 04:01:00,
2013-08-07 21:06:00,72.1,42.8,30.02,NE,45,0.0,0.0,35,0.00,,,0.00,WUHU21623XXSP,2013-08-08 04:06:00,
2013-08-07 21:12:00,72.0,42.7,30.02,NE,45,0.0,1.3,35,0.00,,,0.00,WUHU21623XXSP,2013-08-08 04:12:00,
2013-08-07 21:17:00,71.8,42.5,30.03,ENE,67,0.0,1.3,35,0.00,,,0.00,WUHU21623XXSP,2013-08-08 04:17:00,
2013-08-07 21:22:00,71.4,42.2,30.03,NE,45,0.0,0.0,35,0.00,,,0.00,WUHU21623XXSP,2013-08-08 04:22:00,
2013-08-07 21:27:00,71.4,42.2,30.03,NE,45,0.0,0.0,35,0.00,,,0.00,WUHU21623XXSP,2013-08-08 04:27:00,
2013-08-07 21:33:00,71.4,42.2,30.03,North,0,0.0,0.0,35,0.00,,,0.00,WUHU21623XXSP,2013-08-08 04:33:00,
2013-08-07 21:38:00,71.2,42.8,30.02,NNW,337,6.9,6.9,36,0.00,,,0.00,WUHU21623XXSP,2013-08-08 04:38:00,
2013-08-07 21:43:00,71.2,42.8,30.02,NW,315,4.9,6.9,36,0.00,,,0.00,WUHU21623XXSP,2013-08-08 04:43:00,
2013-08-07 21:48:00,70.9,43.9,30.02,NNW,337,0.9,4.9,38,0.00,,,0.00,WUHU21623XXSP,2013-08-08 04:48:00,
2013-08-07 21:54:00,70.9,43.2,30.02,NW,315,3.1,4.5,37,0.00,,,0.00,WUHU21623XXSP,2013-08-08 04:54:00,
2013-08-07 21:59:00,70.7,43.0,30.02,NNW,337,0.0,4.5,37,0.00,,,0.00,WUHU21623XXSP,2013-08-08 04:59:00,
2013-08-07 22:04:00,70.5,42.9,30.02,SW,225,2.2,2.2,37,0.00,,,0.00,WUHU21623XXSP,2013-08-08 05:04:00,
2013-08-07 22:09:00,70.3,42.7,30.03,SSW,202,1.3,2.2,37,0.00,,,0.00,WUHU21623XXSP,2013-08-08 05:09:00,
2013-08-07 22:14:00,70.2,42.5,30.03,SSW,202,0.0,1.3,37,0.00,,,0.00,WUHU21623XXSP,2013-08-08 05:14:00,
2013-08-07 22:20:00,70.0,42.4,30.03,SSW,202,0.0,0.0,37,0.00,,,0.00,WUHU21623XXSP,2013-08-08 05:20:00,
2013-08-07 22:25:00,69.6,42.0,30.03,SSW,202,0.7,2.0,37,0.00,,,0.00,WUHU21623XXSP,2013-08-08 05:25:00,
2013-08-07 22:30:00,69.1,41.6,30.02,South,180,0.0,2.0,37,0.00,,,0.00,WUHU21623XXSP,2013-08-08 05:30:00,
2013-08-07 22:35:00,68.7,41.2,30.02,South,180,0.0,1.6,37,0.00,,,0.00,WUHU21623XXSP,2013-08-08 05:35:00,
2013-08-07 22:41:00,68.5,41.8,30.02,South,180,2.7,2.7,38,0.00,,,0.00,WUHU21623XXSP,2013-08-08 05:41:00,
2013-08-07 22:46:00,68.2,41.5,30.02,South,180,2.2,2.7,38,0.00,,,0.00,WUHU21623XXSP,2013-08-08 05:46:00,
2013-08-07 22:51:00,67.6,41.0,30.02,SSW,202,1.3,2.2,38,0.00,,,0.00,WUHU21623XXSP,2013-08-08 05:51:00,
2013-08-07 22:56:00,67.5,40.8,30.02,South,180,1.3,2.2,38,0.00,,,0.00,WUHU21623XXSP,2013-08-08 05:56:00,
2013-08-07 23:02:00,67.1,40.5,30.02,South,180,0.0,2.0,38,0.00,,,0.00,WUHU21623XXSP,2013-08-08 06:02:00,
2013-08-07 23:07:00,66.9,41.1,30.02,South,180,0.0,0.0,39,0.00,,,0.00,WUHU21623XXSP,2013-08-08 06:07:00,
2013-08-07 23:12:00,66.7,40.9,30.02,South,180,1.3,3.4,39,0.00,,,0.00,WUHU21623XXSP,2013-08-08 06:12:00,
2013-08-07 23:17:00,66.7,40.9,30.01,South,180,1.8,3.4,39,0.00,,,0.00,WUHU21623XXSP,2013-08-08 06:17:00,
2013-08-07 23:23:00,66.4,40.6,30.01,SSW,202,0.0,1.8,39,0.00,,,0.00,WUHU21623XXSP,2013-08-08 06:23:00,
2013-08-07 23:28:00,66.2,40.5,30.01,SSW,202,0.0,1.1,39,0.00,,,0.00,WUHU21623XXSP,2013-08-08 06:28:00,
2013-08-07 23:33:00,66.0,40.3,30.01,South,180,0.9,0.9,39,0.00,,,0.00,WUHU21623XXSP,2013-08-08 06:33:00,
2013-08-07 23:38:00,66.0,40.3,30.01,South,180,0.0,2.0,39,0.00,,,0.00,WUHU21623XXSP,2013-08-08 06:38:00,
2013-08-07 23:44:00,65.8,40.1,30.01,South,180,0.0,0.4,39,0.00,,,0.00,WUHU21623XXSP,2013-08-08 06:44:00,
2013-08-07 23:49:00,65.8,40.1,30.01,South,180,0.0,0.0,39,0.00,,,0.00,WUHU21623XXSP,2013-08-08 06:49:00,
2013-08-07 23:54:00,65.7,40.7,30.01,South,180,0.0,0.0,40,0.00,,,0.00,WUHU21623XXSP,2013-08-08 06:54:00,
2013-08-07 23:59:00,65.5,40.5,30.01,South,180,0.0,0.0,40,0.00,,,0.00,WUHU21623XXSP,2013-08-08 06:59:00,